This demonstration page uses our WeatherBlox Daily Observations layout. Learn more.

Hourly Observations for July 16, 2020

Temp ( °F °C ) Dew Point ( °F °C ) Humidity (%) Winds ( mph kmh ) Pressure ( in mb ) Visibility ( mi km ) Precip ( " mm )
12:53 am 00:53 Clear 81 27.2 66 18.9 61 61 Calm 29.97 1015 10 16.0934 0 0
1:53 am 01:53 Clear 80 26.7 67 19.4 64 64 Calm 29.93 1014 10 16.0934 0 0
2:53 am 02:53 Partly Cloudy 79 26.1 67 19.4 67 67 Calm 29.94 1014 10 16.0934 0 0
3:53 am 03:53 Clear 79 26.1 67 19.4 67 67 Calm 29.9 1013 10 16.0934 0 0
4:53 am 04:53 Partly Cloudy 77 25 67 19.4 71 71 VRB 3 6 29.91 1013 10 16.0934 0 0
5:53 am 05:53 Mostly Clear 77 25 68 20 74 74 Calm 29.91 1013 10 16.0934 0 0
6:53 am 06:53 Mostly Cloudy 79 26.1 67 19.4 67 67 Calm 29.93 1014 10 16.0934 0 0
7:53 am 07:53 Cloudy 80 26.7 68 20 67 67 VRB 3 6 29.95 1014 10 16.0934 0 0
8:34 am 08:34 Cloudy 79 26.1 69 20.6 72 72 VRB 5 7 29.96 1015 10 16.0934 0 0
8:53 am 08:53 Cloudy 79 26.1 69 20.6 72 72 VRB 5 7 29.98 1015 10 16.0934 0 0
9:53 am 09:53 Mostly Cloudy 81 27.2 71 21.7 72 72 SW 5 7 29.99 1016 10 16.0934 0 0
10:23 am 10:23 Mostly Cloudy 81 27.2 72 22.2 74 74 SW 5 7 29.98 1015 10 16.0934 0 0
10:53 am 10:53 Partly Cloudy 83 28.3 72 22.2 70 70 WSW 9 15 30 1016 10 16.0934 0 0
11:53 am 11:53 Mostly Cloudy 86 30 71 21.7 61 61 VRB 7 11 30.01 1016 10 16.0934 0 0
12:53 pm 12:53 Partly Cloudy 85 29.4 71 21.7 63 63 W 9 15 30.01 1016 10 16.0934 0 0
1:53 pm 13:53 Mostly Sunny 87 30.6 71 21.7 59 59 WSW 10 17 30.02 1017 10 16.0934 0 0
2:53 pm 14:53 Mostly Cloudy 86 30 71 21.7 61 61 SW 9 15 30.02 1017 10 16.0934 0 0
3:53 pm 15:53 Partly Cloudy 87 30.6 71 21.7 59 59 W 12 19 30.03 1017 10 16.0934 0 0
4:53 pm 16:53 Mostly Cloudy 86 30 71 21.7 61 61 W 10 17 30.03 1017 10 16.0934 0 0
5:53 pm 17:53 Mostly Cloudy 83 28.3 70 21.1 65 65 WNW 13 20 30.05 1018 10 16.0934 0 0
6:53 pm 18:53 Mostly Cloudy 83 28.3 70 21.1 65 65 WNW 9 15 30.05 1018 10 16.0934 0 0
7:53 pm 19:53 Mostly Cloudy 80 26.7 69 20.6 69 69 WNW 8 13 30.06 1018 10 16.0934 0 0
8:53 pm 20:53 Mostly Cloudy 78 25.6 69 20.6 74 74 VRB 5 7 30.07 1018 10 16.0934 0 0
9:53 pm 21:53 Mostly Cloudy 76 24.4 69 20.6 79 79 WNW 6 9 30.09 1019 10 16.0934 0 0
10:53 pm 22:53 Clear 73 22.8 69 20.6 87 87 Calm 30.1 1019 10 16.0934 0 0
11:53 pm 23:53 Clear 70 21.1 68 20 93 93 Calm 30.1 1019 10 16.0934 0 0

Powered by AerisWeather